Location: ASU Dark Sky Observatory
(36.2504°N, 81.4125°W)
Time: 16:26:01
(UTC-04:00)

Amateur Radio Satellites - All Passes

Search period start: 20 August 2014 15:56
Search period end: 21 August 2014 15:56
Location: ASU Dark Sky Observatory, 36.2504°N, 81.4125°W

Satellite Date Start Highest point End Downlink Frequencies (MHz)
Time Altitude Azimuth
AO-Echo 20 Aug 16:07:13 16:10:22 16° 267° (W) 16:13:30 ?
Uribyol 2 20 Aug 16:08:20 16:11:28 16° 267° (W) 16:14:36 436.500 FM
SO-50 20 Aug 16:10:08 16:14:54 67° 59° (ENE) 16:19:43 436.795 FM
AO-7 20 Aug 16:18:56 16:26:57 54° 66° (ENE) 16:34:59 29.400 - 29.500 MHz
AO-27 20 Aug 16:22:31 16:24:35 12° 269° (W) 16:26:39 436.795 MHz FM
TMSAT-1 20 Aug 16:42:33 16:46:58 27° 264° (W) 16:51:24 436.925 FM
MaSat-1 20 Aug 16:44:37 16:49:09 57° 297° (WNW) 16:54:10 437.345 MHz
Uosat F 20 Aug 16:45:16 16:50:14 65° 74° (ENE) 16:55:13 435.120 FM
PANSAT 20 Aug 16:56:57 16:58:24 12° 161° (SSE) 16:59:51 not established
ISS 20 Aug 17:06:49 17:07:27 10° 340° (NNW) 17:08:05 145.800 FM
OPAL 20 Aug 17:29:21 17:34:22 47° 102° (ESE) 17:39:23 ?
JAS-1B 20 Aug 17:32:19 17:35:43 12° 275° (W) 17:39:07 435.800 - 435.900 CW/SSB
UOSAT-12 20 Aug 17:33:04 17:37:25 35° 54° (NE) 17:41:42 437.025 FM, 437.400 FM
RS-15 20 Aug 17:38:09 17:47:18 28° 39° (NE) 17:56:38 29.354 - 29.394 USB, Beacon 29.352 USB
SO-50 20 Aug 17:52:58 17:54:55 12° 253° (WSW) 17:56:52 436.795 FM
JAS-2 20 Aug 18:03:04 18:09:22 40° 71° (ENE) 18:14:59 435.800 - 435.900 CW/SSB, 435.910 FM
AO-7 20 Aug 18:12:50 18:19:56 31° 263° (W) 18:27:05 29.400 - 29.500 MHz
Uosat F 20 Aug 18:27:33 18:29:24 12° 268° (W) 18:31:16 435.120 FM
PANSAT 20 Aug 18:34:55 18:37:59 23° 173° (S) 18:41:03 not established
PCSat 20 Aug 18:45:49 18:49:21 18° 105° (ESE) 18:52:53 145.825 MHz
Hamsat 20 Aug 18:52:23 18:56:36 66° 259° (W) 19:00:53 145.90 MHz
STRAND 1 20 Aug 18:57:03 18:58:59 12° 91° (E) 19:00:55 ?
OPAL 20 Aug 19:09:11 19:12:52 20° 297° (WNW) 19:16:33 ?
UOSAT-12 20 Aug 19:13:40 19:17:20 23° 249° (WSW) 19:20:58 437.025 FM, 437.400 FM
SO-67 20 Aug 19:35:13 19:38:33 47° 75° (ENE) 19:41:54 435.3500 MHz FM
JAS-2 20 Aug 19:48:23 19:54:23 31° 262° (W) 19:59:50 435.800 - 435.900 CW/SSB, 435.910 FM
RS-15 20 Aug 19:49:55 20:01:05 86° 243° (WSW) 20:12:42 29.354 - 29.394 USB, Beacon 29.352 USB
Sapphire 20 Aug 19:56:08 20:01:31 77° 115° (ESE) 20:06:56 437.095 MHz 1200 baud AX-25 AFSK
PANSAT 20 Aug 20:14:34 20:17:42 24° 186° (S) 20:20:49 not established
ISS 20 Aug 20:22:42 20:23:44 11° 21° (NNE) 20:24:45 145.800 FM
PCSat 20 Aug 20:27:00 20:32:16 53° 300° (WNW) 20:37:35 145.825 MHz
STRAND 1 20 Aug 20:33:32 20:38:35 66° 286° (WNW) 20:43:37 ?
HO-68 20 Aug 20:34:51 20:40:49 30° 63° (ENE) 20:46:47 435.675 MHz FM
UKube-1 20 Aug 21:24:55 21:28:41 29° 70° (ENE) 21:32:27 145.840 MHz, 145.915 MHz
Sapphire 20 Aug 21:42:24 21:45:32 15° 313° (NW) 21:48:42 437.095 MHz 1200 baud AX-25 AFSK
Oscar 11 20 Aug 21:43:04 21:46:38 26° 70° (ENE) 21:50:14 145.825 FM, Beacon 2401.500 USB
PANSAT 20 Aug 21:55:25 21:57:18 13° 198° (SSW) 21:59:11 not established
ISS 20 Aug 21:57:46 22:01:03 57° 39° (NE) 22:04:21 145.800 FM
RS-15 20 Aug 22:05:09 22:11:52 18° 260° (W) 22:18:47 29.354 - 29.394 USB, Beacon 29.352 USB
HO-68 20 Aug 22:21:20 22:28:11 48° 259° (W) 22:35:04 435.675 MHz FM
AO-40 20 Aug 22:59:52 05:27:37 47° 181° (S) 08:11:44 Beacon 2401.320
UKube-1 20 Aug 23:01:35 23:04:52 21° 264° (W) 23:08:10 145.840 MHz, 145.915 MHz
FUNcube-1 20 Aug 23:13:41 23:17:49 76° 258° (WSW) 23:21:59 145.950 - 145.970 MHz USB
Oscar 11 20 Aug 23:19:18 23:22:44 23° 265° (W) 23:26:12 145.825 FM, Beacon 2401.500 USB
Oscar 10/S400 20 Aug 23:25:49 23:53:24 72° 181° (S) 09:23:06 145.825 - 145.975 CW/USB, Beacon 145.810 USB
ISS 20 Aug 23:36:08 23:37:24 12° 233° (SW) 23:38:41 145.800 FM
MaSat-1 21 Aug 01:06:04 01:09:34 20° 53° (NE) 01:12:47 437.345 MHz
Saudisat 1A 21 Aug 01:13:36 01:17:24 29° 113° (ESE) 01:21:14 436.775 MHz
KITSAT 1 21 Aug 01:57:24 02:05:23 68° 114° (ESE) 02:13:25 435.175 FM
Oscar 19 21 Aug 02:21:58 02:26:36 32° 97° (E) 02:31:12 437.125 CW, 437.150 USB
ITAMSAT 1 21 Aug 02:30:47 02:33:52 16° 93° (E) 02:36:56 435.822 SSB
AO-Echo 21 Aug 02:37:27 02:40:45 19° 94° (E) 02:44:01 ?
MaSat-1 21 Aug 02:42:30 02:46:55 40° 254° (WSW) 02:50:47 437.345 MHz
Uribyol 2 21 Aug 02:42:48 02:46:51 23° 95° (E) 02:50:53 436.500 FM
Saudisat 1A 21 Aug 02:53:15 02:56:56 26° 309° (NW) 03:00:39 436.775 MHz
Oscar 16 21 Aug 02:54:29 02:59:41 72° 102° (ESE) 03:04:52 437.025 USB, Beacon 2401.1428
AO-27 21 Aug 02:55:43 03:00:12 29° 97° (E) 03:04:40 436.795 MHz FM
TMSAT-1 21 Aug 03:21:55 03:25:05 16° 92° (E) 03:28:13 436.925 FM
JAS-1B 21 Aug 03:25:55 03:32:55 47° 97° (E) 03:38:52 435.800 - 435.900 CW/SSB
PCSat 21 Aug 03:37:31 03:38:25 10° 43° (NE) 03:39:19 145.825 MHz
KITSAT 1 21 Aug 03:54:43 04:01:24 28° 313° (NW) 04:08:07 435.175 FM
Gurwin Techsat 1B 21 Aug 04:01:22 04:06:36 56° 101° (E) 04:11:47 435.225 FM
Oscar 19 21 Aug 04:01:28 04:05:47 27° 292° (WNW) 04:10:06 437.125 CW, 437.150 USB
ITAMSAT 1 21 Aug 04:08:36 04:13:38 53° 287° (WNW) 04:18:38 435.822 SSB
AO-Echo 21 Aug 04:15:19 04:19:39 37° 289° (WNW) 04:23:55 ?
Uribyol 2 21 Aug 04:21:39 04:26:22 37° 290° (WNW) 04:31:06 436.500 FM
AO-7 21 Aug 04:25:08 04:30:36 19° 93° (E) 04:36:00 29.400 - 29.500 MHz
AO-27 21 Aug 04:35:12 04:39:37 29° 292° (WNW) 04:44:01 436.795 MHz FM
Oscar 16 21 Aug 04:36:06 04:38:23 13° 298° (WNW) 04:40:40 437.025 USB, Beacon 2401.1428
OPAL 21 Aug 04:41:48 04:46:42 62° 72° (ENE) 04:51:42 ?
Sapphire 21 Aug 04:47:02 04:51:59 35° 56° (NE) 04:56:55 437.095 MHz 1200 baud AX-25 AFSK
Uosat F 21 Aug 04:56:19 05:00:22 24° 96° (E) 05:04:24 435.120 FM
TMSAT-1 21 Aug 05:00:08 05:05:17 55° 287° (WNW) 05:10:26 436.925 FM
JAS-1B 21 Aug 05:17:04 05:23:04 27° 299° (WNW) 05:28:20 435.800 - 435.900 CW/SSB
PCSat 21 Aug 05:17:24 05:22:50 69° 62° (ENE) 05:28:13 145.825 MHz
Gurwin Techsat 1B 21 Aug 05:42:47 05:46:04 17° 296° (WNW) 05:49:20 435.225 FM
STRAND 1 21 Aug 06:10:26 06:13:15 15° 64° (ENE) 06:16:03 ?
AO-7 21 Aug 06:15:47 06:24:05 79° 289° (WNW) 06:32:20 29.400 - 29.500 MHz
SO-50 21 Aug 06:22:59 06:27:05 38° 114° (ESE) 06:31:17 436.795 FM
OPAL 21 Aug 06:23:49 06:25:59 13° 267° (W) 06:28:09 ?
Sapphire 21 Aug 06:30:40 06:35:15 28° 252° (WSW) 06:39:49 437.095 MHz 1200 baud AX-25 AFSK
Uosat F 21 Aug 06:34:43 06:39:08 33° 291° (WNW) 06:43:33 435.120 FM
Hamsat 21 Aug 06:41:12 06:44:54 26° 96° (E) 06:48:33 145.90 MHz
JAS-2 21 Aug 06:59:47 07:04:32 36° 98° (E) 07:09:25 435.800 - 435.900 CW/SSB, 435.910 FM
PCSat 21 Aug 07:03:05 07:05:34 13° 257° (WSW) 07:08:04 145.825 MHz
UOSAT-12 21 Aug 07:42:56 07:46:06 19° 109° (ESE) 07:49:19 437.025 FM, 437.400 FM
STRAND 1 21 Aug 07:46:51 07:51:54 60° 259° (W) 07:56:57 ?
RS-15 21 Aug 08:03:58 08:09:51 16° 99° (E) 08:15:39 29.354 - 29.394 USB, Beacon 29.352 USB
SO-50 21 Aug 08:04:20 08:07:46 21° 311° (NW) 08:11:16 436.795 FM
AO-7 21 Aug 08:11:03 08:15:33 16° 308° (NW) 08:20:03 29.400 - 29.500 MHz
Hamsat 21 Aug 08:17:15 08:20:43 23° 290° (WNW) 08:24:09 145.90 MHz
SO-67 21 Aug 08:34:20 08:37:49 88° 102° (ESE) 08:41:16 435.3500 MHz FM
JAS-2 21 Aug 08:45:31 08:49:27 22° 293° (WNW) 08:53:26 435.800 - 435.900 CW/SSB, 435.910 FM
UOSAT-12 21 Aug 09:21:32 09:25:54 42° 305° (NW) 09:30:22 437.025 FM, 437.400 FM
Saudisat 1A 21 Aug 09:43:37 09:45:54 14° 45° (NE) 09:48:10 436.775 MHz
HO-68 21 Aug 09:51:48 09:58:22 38° 99° (E) 10:04:54 435.675 MHz FM
KITSAT 1 21 Aug 09:54:22 10:00:29 23° 43° (NE) 10:06:33 435.175 FM
RS-15 21 Aug 10:09:18 10:20:28 83° 117° (ESE) 10:31:24 29.354 - 29.394 USB, Beacon 29.352 USB
UKube-1 21 Aug 10:51:11 10:55:32 80° 103° (ESE) 10:59:51 145.840 MHz, 145.915 MHz
FUNcube-1 21 Aug 11:05:35 11:09:17 25° 96° (E) 11:13:01 145.950 - 145.970 MHz USB
Oscar 11 21 Aug 11:08:27 11:12:50 76° 102° (ESE) 11:17:12 145.825 FM, Beacon 2401.500 USB
Saudisat 1A 21 Aug 11:21:32 11:25:55 66° 243° (WSW) 11:30:15 436.775 MHz
HO-68 21 Aug 11:39:33 11:45:57 37° 295° (WNW) 11:52:21 435.675 MHz FM
KITSAT 1 21 Aug 11:48:44 11:56:50 84° 244° (WSW) 12:04:53 435.175 FM
RS-15 21 Aug 12:24:56 12:34:05 29° 320° (NW) 12:43:14 29.354 - 29.394 USB, Beacon 29.352 USB
FUNcube-1 21 Aug 12:41:55 12:45:34 26° 290° (WNW) 12:49:16 145.950 - 145.970 MHz USB
Oscar 19 21 Aug 13:36:22 13:41:00 36° 70° (ENE) 13:45:40 437.125 CW, 437.150 USB
ITAMSAT 1 21 Aug 13:46:20 13:49:59 20° 65° (ENE) 13:53:38 435.822 SSB
KITSAT 1 21 Aug 13:47:23 13:51:00 14° 260° (W) 13:54:36 435.175 FM
AO-Echo 21 Aug 13:47:43 13:51:35 22° 67° (ENE) 13:55:24 ?
Uribyol 2 21 Aug 13:58:16 14:02:33 27° 68° (ENE) 14:06:50 436.500 FM
JAS-1B 21 Aug 14:04:06 14:13:03 41° 66° (ENE) 14:21:39 435.800 - 435.900 CW/SSB
Oscar 16 21 Aug 14:08:48 14:13:56 79° 75° (ENE) 14:19:06 437.025 USB, Beacon 2401.1428
AO-27 21 Aug 14:11:21 14:16:01 35° 70° (ENE) 14:20:41 436.795 MHz FM
ISS 21 Aug 14:38:15 14:41:34 84° 138° (SE) 14:44:54 145.800 FM
TMSAT-1 21 Aug 14:40:09 14:43:56 20° 66° (ENE) 14:47:44 436.925 FM
RS-15 21 Aug 14:47:27 14:51:55 13° 356° (N) 14:56:24 29.354 - 29.394 USB, Beacon 29.352 USB
MaSat-1 21 Aug 14:53:42 14:55:51 13° 98° (E) 14:58:05 437.345 MHz
SO-50 21 Aug 14:57:16 15:00:52 21° 49° (NE) 15:04:30 436.795 FM
Oscar 19 21 Aug 15:16:18 15:20:22 24° 265° (W) 15:24:28 437.125 CW, 437.150 USB
Gurwin Techsat 1B 21 Aug 15:19:49 15:25:04 68° 74° (ENE) 15:30:21 435.225 FM
AO-7 21 Aug 15:21:41 15:27:48 23° 57° (ENE) 15:33:55 29.400 - 29.500 MHz
ITAMSAT 1 21 Aug 15:24:10 15:29:07 45° 260° (W) 15:34:05 435.822 SSB
AO-Echo 21 Aug 15:25:12 15:30:04 40° 261° (W) 15:34:51 ?
Uribyol 2 21 Aug 15:37:19 15:41:53 31° 263° (W) 15:46:27 436.500 FM
